This is the latest recevied weather packets stored in our database for station/object DH8TOM-4. If no packets are shown the sender has not sent any weather packets the latest 1 day(s).
| Time | Temp. | Humidity | Pressure | Rain* | Wind** | Luminosity | Snow |
|---|---|---|---|---|---|---|---|
| 1778081635 | 20° C | 78% | 1003.1 hPa | - | - | - | - |
| 1778081333 | 20° C | 78% | 1003.1 hPa | - | - | - | - |
| 1778080431 | 20.56° C | 76% | 1003.2 hPa | - | - | - | - |
| 1778079227 | 21.11° C | 79% | 1003.2 hPa | - | - | - | - |
| 1778076217 | 21.11° C | 82% | 1003.6 hPa | - | - | - | - |
| 1778075013 | 21.67° C | 84% | 1003.6 hPa | - | - | - | - |
| 1778074712 | 21.67° C | 84% | 1003.6 hPa | - | - | - | - |
| 1778074412 | 21.67° C | 86% | 1003.6 hPa | - | - | - | - |
| 1778072906 | 21.67° C | 94% | 1003.7 hPa | - | - | - | - |
| 1778072003 | 21.67° C | 100% | 1003.9 hPa | - | - | - | - |
| 1778071100 | 21.67° C | 100% | 1003.8 hPa | - | - | - | - |
| 1778068692 | 22.22° C | 100% | 1003.9 hPa | - | - | - | - |
| 1778068391 | 22.78° C | 100% | 1003.9 hPa | - | - | - | - |
| 1778066886 | 22.78° C | 100% | 1003.9 hPa | - | - | - | - |
| 1778065080 | 21.67° C | 100% | 1004.2 hPa | - | - | - | - |
| 1778063575 | 21.67° C | 100% | 1004.2 hPa | - | - | - | - |
| 1778062672 | 21.11° C | 100% | 1004.1 hPa | - | - | - | - |
| 1778062370 | 21.11° C | 100% | 1004.2 hPa | - | - | - | - |
| 1778061167 | 20° C | 100% | 1004.1 hPa | - | - | - | - |
| 1778060866 | 20° C | 100% | 1004.1 hPa | - | - | - | - |
| 1778060565 | 19.44° C | 100% | 1004 hPa | - | - | - | - |
| 1778060264 | 19.44° C | 100% | 1004 hPa | - | - | - | - |
| 1778059963 | 20° C | 100% | 1004 hPa | - | - | - | - |
| 1778059361 | 20.56° C | 100% | 1003.9 hPa | - | - | - | - |
| 1778059060 | 20.56° C | 100% | 1003.9 hPa | - | - | - | - |
* Rain since midnight (hover to see other rain measurements)
** Current wind speed in m/s (hover to see current wind gust speed)